Regional Weather Roundup
Issued by NWS

Home | Current Version | Previous Version | Text Only | Print | Product List | Glossary On
Versions: 1 2 3 4 5 6 7 8 9 10 11 12 13 14 15 16 17 18 19 20 21 22 23 24 25 26 27 28 29 30 31 32 33 34 35 36 37 38 39 40 41 42 43 44 45 46 47 48 49 50
000
ASUS42 KTBW 241017
RWRFL
FLORIDA REGIONAL WEATHER ROUNDUP
NATIONAL WEATHER SERVICE TAMPA BAY RUSKIN FL
600 AM EDT TUE APR 24 2018

NOTE: "FAIR" INDICATES FEW OR NO CLOUDS BELOW 12,000 FEET WITH NO
SIGNIFICANT WEATHER AND/OR OBSTRUCTIONS TO VISIBILITY.

FLZ001>010-012>015-112-114-115-241100-
PANHANDLE FLORIDA

CITY           SKY/WX    TMP DP  RH WIND       PRES   REMARKS
PENSACOLA      FAIR      57  51  80 W7        29.96S
PENSACOLA NAS  FAIR      51  49  92 CALM      29.96S
MILTON NAS     FAIR      50  50 100 CALM      29.96S
CRESTVIEW      FAIR      51  49  92 CALM      29.96S
DUKE FIELD     FAIR      53  50  89 W5        29.95S
VALPARAISO     CLEAR     53  50  90 NW3       29.94S
MARY ESTHER    CLEAR     56  51  85 NW6       29.95R
TRI COUNTY     FAIR      56  54  93 CALM      29.95S
PANAMA CITY    FAIR      56  53  90 SW3       29.94S
TYNDALL AFB    FAIR      57  54  88 NW7       29.95S
APALACHICOLA   FAIR      58  57  97 CALM      29.94R

STATION/POSITION SKY/WX   TEMP    WIND        PRES    WAVE   SWELL
                          AIR SEA DIR/SP/G            HT/PER HT/PER
                          (F)     (DEG/KT/KT) (MB)    (FT/S) (FT/S)
30.1N   87.6W              64     310/ 12/ 14 1014.6
29.2N   88.2W                 72  310/ 10/ 14 1015.5F   3/ 5   2/ 6
28.8N   86.0W              69 73  320/ 16/ 19 1014.0R   4/ 6   2/ 9
PANAMA CITY BEAC           60 70  310/  7/  9 1014.6R
TOWER C                    66     330/  9/ 10 1014.1R

$$
FLZ011-016>038-118-127-128-134-139-239-241100-
NORTH FLORIDA

CITY           SKY/WX    TMP DP  RH WIND       PRES   REMARKS
MARIANNA       FAIR      57  53  86 W6        29.93S
TALLAHASSEE    MOCLDY    57  54  89 CALM      29.92F
PERRY          MOCLDY    60  57  91 W3        29.93S
LIVE OAK       PTCLDY    61  59  94 SW5       29.93S
CROSS CITY     FAIR      59 N/A N/A W3        29.93S
LAKE CITY      FAIR      59  57  94 W6        29.92S
GAINESVILLE    FAIR      63  60  90 W3        29.95S
WILLISTON        N/A     64  64 100 CALM      29.94R FOG
PALATKA        MOCLDY    63  63 100 W3        29.93S FOG
MAYPORT NAS    FAIR      66  63  90 W12G18    29.90S
JACKSONVILLE   FAIR      63  61  93 W9        29.90S
JAX NAS        FAIR      66  63  90 W8        29.92R
JAX CECIL      FAIR      63  63 100 S5        29.92R
FERNANDINA BEA FAIR      65  62  89 W10       29.89S
ST AUGUSTINE   FAIR      67  65  93 W6        29.92R
PALM COAST     MOCLDY    66  66 100 W5        29.92S FOG

STATION/POSITION SKY/WX   TEMP    WIND        PRES    WAVE   SWELL
                          AIR SEA DIR/SP/G            HT/PER HT/PER
                          (F)     (DEG/KT/KT) (MB)    (FT/S) (FT/S)
SHELL POINT                63     290/  6/ 11 1013.2
KEATON BEACH               67     300/ 13/ 16 1013.6R
CEDAR KEY                  68     280/ 10/ 11 1014.1R
FERNANDINA                 66 67  240/  7/ 13 1013.2R
30.7N   81.3W                 67                N/A     6/10   2/11
MAYPORT                    66 67  260/  8/ 12 1012.7R
31.4N   80.9W              66 65  220/ 10/ 12 1011.4R   6/10   5/10
ST AUGUSTINE               67 68  250/  4/  5 1013.0R

$$
FLZ040-043>046-052-053-057-058-063-144-241100-
INTERIOR CENTRAL FLORIDA

CITY           SKY/WX    TMP DP  RH WIND       PRES   REMARKS
OCALA          FOG       63  61  94 CALM      29.95R VSB 1/2
LEESBURG       FAIR      70  69  97 CALM      29.94S
SANFORD        FAIR      70  68  93 W6        29.93S
ORLANDO INTL   MOCLDY    72  70  93 W8        29.93S
KISSIMMEE      CLOUDY    72  70  93 W8        29.95R
WINTER HAVEN   MOCLDY    71  70  96 NW9       29.95R
LAKELAND       PTCLDY    90  90 100 W3        29.95R HX 129
SEBRING        CLOUDY    74  71  92 SW6       29.95R FOG
OKEECHOBEE     CLOUDY    70  70 100 SW6       29.95R FOG

$$
FLZ041-047-054-059-064-141-147-241100-
EAST CENTRAL FLORIDA

CITY           SKY/WX    TMP DP  RH WIND       PRES   REMARKS
DAYTONA BEACH  CLOUDY    69  69 100 W8        29.92S
DELAND         FAIR      68  68 100 W5        29.92F
JFK SPACE CTR  CLOUDY    72  72 100 SW5       29.92S
CAPE CANAVERAL CLOUDY    72  69  90 SW5       29.92S
PATRICK AFB    FAIR      71  71 100 SW8       29.93R
MELBOURNE      FAIR      71  69  93 S8        29.93S
VERO BEACH     CLOUDY    71  70  96 SW6       29.95R
FT PIERCE      FAIR      71  71 100 W3        29.94S
STUART         FAIR      72  70  94 S5        29.96F

STATION/POSITION SKY/WX   TEMP    WIND        PRES    WAVE   SWELL
                          AIR SEA DIR/SP/G            HT/PER HT/PER
                          (F)     (DEG/KT/KT) (MB)    (FT/S) (FT/S)
28.5N   80.2W              74 73  230/ 10/ 14 1013.5R   5/ 8   5/ 8
28.9N   78.5W              71 74   80/  8/ 12 1013.7S   9/ 8   8/ 8
TRIDENT PIER               72 76  220/  7/  9 1014.9S
28.4N   80.5W                 75                N/A     3/ 8
27.5N   80.2W                 75                N/A     3/ 8

$$
FLZ050-056-061-142-242-148-248-149-249-151-251-155-255-
160-260-241100-
WEST CENTRAL FLORIDA

CITY           SKY/WX    TMP DP  RH WIND       PRES   REMARKS
CRYSTAL RIVER  FAIR      66  63  88 W5        29.94R
INVERNESS      FOG       63  63 100 CALM      29.95R VSB 1/4
BROOKSVILLE    FAIR      64  63  96 CALM      29.95S FOG
CLEARWATER AIR MOCLDY    70  64  83 W6        29.94S
ST PETE CLEARW FAIR      73  67  81 W6        29.94S
TAMPA INTL     CLOUDY    72  67  84 NW6       29.95R
TAMPA EXEC     FOG       64  64 100 CALM      29.95S VSB 1
MACDILL AFB    FAIR      71  68  90 W5        29.94S
PETER O KNIGHT MOCLDY    72  72 100 CALM      29.95S
ST PETERSBURG  FAIR      73  70  90 NW5       29.93R
SARASOTA       FAIR      72  69  90 NW10      29.93S
VENICE         CLOUDY    75  72  88 NW10      29.95S

STATION/POSITION SKY/WX   TEMP    WIND        PRES    WAVE   SWELL
                          AIR SEA DIR/SP/G            HT/PER HT/PER
                          (F)     (DEG/KT/KT) (MB)    (FT/S) (FT/S)
27.3N   84.2W                 74                N/A     3/ 5
CLEARWATER BEACH           72 76  280/ 12/ 14 1014.1R
MIDDLE TAMPA BAY           73     300/ 11/ 13 1013.8S
VENICE                     74 78  310/ 13/ 14 1014.1R

$$
FLZ066-069-070-075>078-162-262-165-265-241100-
SOUTHWEST FLORIDA AND KEYS

CITY           SKY/WX    TMP DP  RH WIND       PRES   REMARKS
PUNTA GORDA    MOCLDY    77  72  84 SW8       29.96R
FT MYERS       FAIR      76  74  93 SW7       29.94S
SOUTHWEST INTL MOCLDY    74  74 100 SW8       29.95S
NAPLES         FAIR      77  75  93 SW12      29.95S
MARCO ISLAND   FAIR      76  73  91 SW7       29.97S
IMMOKALEE      FAIR      72  70  94 CALM      29.96F FOG
MARATHON       MOCLDY    78  73  84 S3        29.97R
KEY WEST NAS   FAIR      77  72  84 SW5       29.98R
KEY WEST INTL  FAIR      77  73  87 SW5       29.98R

STATION/POSITION SKY/WX   TEMP    WIND        PRES    WAVE   SWELL
                          AIR SEA DIR/SP/G            HT/PER HT/PER
                          (F)     (DEG/KT/KT) (MB)    (FT/S) (FT/S)
NAPLES                     78 81              1014.2R
26.0N   85.6W              75 79  330/ 10/ 12 1014.6R   2/ 5   2/ 5
DRY TORTUGAS               76        CALM     1014.9F
SAND KEY                   76                 1015.1R
SOMBRERO KEY               77     190/  5/  6 1014.3R
LONG KEY                   78 82  220/  7/  8 1014.8R

$$
FLZ067-068-071>074-168-172>174-241100-
SOUTHEAST FLORIDA

CITY           SKY/WX    TMP DP  RH WIND       PRES   REMARKS
W PALM BEACH   FAIR      73  73 100 SW7       29.96S
FT LAUDER-EXEC FAIR      74  74 100 SW5       29.96R
FT LAUDERDALE  FAIR      74  74 100 SW5       29.95S
POMPANO BEACH  FAIR      75  74  96 SW6       29.96R
PEMBROKE PINES FAIR      75  72  90 SW3       29.97S
OPA LOCKA      FAIR      74  73  97 SW5       29.97S
MIAMI          FAIR      73  73 100 CALM      29.97S
WEST KENDALL   FAIR      73  70  90 SW3       29.97R
HOMESTEAD      FAIR      72  71  97 CALM      29.96S

STATION/POSITION SKY/WX   TEMP    WIND        PRES    WAVE   SWELL
                          AIR SEA DIR/SP/G            HT/PER HT/PER
                          (F)     (DEG/KT/KT) (MB)    (FT/S) (FT/S)
PORT EVERGLADES            76     230/  4/  6 1014.5
VIRGINIA KEY               78 80  210/  8/ 10 1014.0S
LAKE WORTH                 74 78  230/  5/  8 1015.5R
FOWEY ROCKS                78 78  210/ 14/ 15 1015.2S
SETTLEMENT POINT           76     180/  8/ 10 1014.7F

$$




USA.gov is the U.S. government's official web portal to all federal, state and local government web resources and services.